Terminal Aerodrome Forecast
Issued by NWS State College, PA

Home | Current Version | Previous Version | Text Only | Print | Product List | Glossary On
Versions: 1 2 3 4 5 6 7 8 9 10 11 12 13 14 15 16 17 18 19 20 21 22 23 24 25 26 27 28 29 30 31 32 33 34 35 36 37 38 39 40 41 42 43 44 45 46 47 48 49 50
000
FTUS41 KCTP 271146 CCA
TAFIPT
TAF COR
KIPT 271146Z 2712/2812 VRB03KT P6SM BKN006 OVC070
     FM271400 23004KT P6SM BKN045 BKN080
     FM271900 28009G17KT P6SM VCTS BKN035CB BKN050
     FM272300 34008KT P6SM SCT070=

USA.gov is the U.S. government's official web portal to all federal, state and local government web resources and services.